Showing default

USA 271, 41745

Orbit data source: Space-Track

USA 271, 41745 is a payload satellite owned by USAF AFSPC (US) in GEO that was launched on Fri, 19 Aug 2016 UTC via a DELTA 4M+(4,2) launch vehicle from the Air Force Eastern Test Range (AFETR). Payload-class satellites include a variety of spacecraft equipped with specific instruments for various scientific and technological missions. These include communications satellites like Starlink; space stations such as the ISS; scientific satellites like the Hubble; Earth observation satellites from companies like Planet Labs, Umbra, and HawkEye 360; GPS; miniature CubeSats for education and research; and military/defense satellites.

Not visible in the next 10 days
Identifier
41745, 2016-052B
Orbit
GEO
Country
Flag of USUS
Related business
Manufacturer
OATK SSG
Mission
Operational Defense Classified
Bus & Motor
GEOSTAR-1, AOCS
Mass
500 kg wet, 500 kg dry
Launch date (UTC)
2016-08-19 (9 years ago)
Launch vehicle
DELTA 4M+(4,2)
Launch site
Air Force Eastern Test Range (AFETR)
Object type
Payload
Rocket body
Debris
Shape & HBR
Box + 2 Pan, 2.5 m
Radar Cross Section
7.621 m²

Expand to show TLE details & history
Last TLE update: 3 weeks ago

TLE from 3 weeks ago
0 USA 271
1 41745U 16052B   25286.34886175 -.00000343  00000-0  00000+0 0  9990
2 41745   3.5327  80.4004 0000199 201.7561 329.1227  1.00338789 25440
Epoch: 2025-10-13T08:22Z
TLE epoch observation values (Epoch: 2025-10-13T08:22:21.655Z)
Latitude
0.56897°
Longitude
103.53408°
Altitude
35,766.526 km
Speed
3.075 km/s
True Right ascension
16h 45m 06s
True Declination
0° 34' 06"
Sunlit
Object was in daylight at epoch
Visualization orbit readout
Latitude
Unknown
Longitude
Unknown
Altitude
Unknown
Speed
Unknown
Apparent Right ascension
Unknown
Apparent Declination
Unknown
Sunlit
N/A
Visualization observer readout
Local Sidereal Time
16:40:39
Azimuth
Unknown
Elevation
Unknown
Doppler factor
Unknown
Orbital elements
Apogee altitude
35,769.725 km
Perigee altitude
35,768.048 km
Semi-major axis
42,147.024 km
Eccentricity
0.00002
Inclination
3.5327°
RAAN
80.4004°
Arg. of periapsis
201.7561°
True anomaly
329.12153°
Mean anomaly
329.1227°
Eccentric anomaly
329.12211°
Mean motion
0.25084 °/min
Orbital period
1,435.19 mins
BSTAR
0
Loading maneuver chart data...
Computing Atmospheric mass density...
Loading historical data...
Loading historical data...
Loading historical data...
Loading historical data...
Loading historical data...
Loading historical data...
Loading historical data...
Other satellites on launch #52 in the year 2016 (2016-08-19 UTC)

Documentation

Showing up to 5 results
|